User: anonymous   Login
Location: Gollag?dem
(16.8053°N, 80.8024°E)
Time: 12:00:02
(UTC+00:00)
Language:

Cosmos 1441 Rocket - Orbit

View from above orbital plane
View from above orbital plane
View from above satellite
View from above satellite

Ground track
Ground track

The orbit data is extracted from the following two-line orbital elements,

1 13819U 83010B   20293.95889340 +.00000685 +00000-0 +34076-4 0  9999
2 13819 081.1167 173.5812 0031043 224.1089 135.7663 15.15866708058339
Epoch (UTC): 19 October 2020 23:00:48
Eccentricity: 0.0031043
inclination: 81.1167°
perigee height: 497 km
apogee height: 540 km
right ascension of ascending node: 173.5812°
argument of perigee: 224.1089°
revolutions per day: 15.15866708
mean anomaly at epoch: 135.7663°
orbit number at epoch: 5833

The dashed part of the orbit path shows where the satellite is in the earth's shadow,  

DLR